Overview Statistics Trail Chart Weather Telemetry Raw packets
 

This is the latest recevied weather packets stored in our database for station/object K4WCH. If no packets are shown the sender has not sent any weather packets the latest 10 day(s).

<< 68 69 70 71 72 73 74 >>
Time Temp. Humidity Pressure Rain* Wind** Luminosity Snow
1788182493 27.78° C 89% 1017.7 hPa 0 mm - 292 W/m² -
1788182188 27.78° C 89% 1017.8 hPa 0 mm - 292 W/m² -
1788181885 27.78° C 89% 1017.6 hPa 0 mm - 292 W/m² -
1788181579 27.78° C 89% 1017.7 hPa 0 mm - 292 W/m² -
1788181275 27.78° C 89% 1017.6 hPa 0 mm - 292 W/m² -
1788180973 27.78° C 89% 1017.7 hPa 0 mm - 292 W/m² -
1788180669 27.22° C 91% 1017.8 hPa 0 mm - 224 W/m² -
1788180365 27.22° C 91% 1017.8 hPa 0 mm - 224 W/m² -
1788180061 27.22° C 91% 1017.7 hPa 0 mm - 224 W/m² -
1788179760 27.22° C 94% 1017.9 hPa 0 mm - 199 W/m² -
1788179454 26.67° C 98% 1017.7 hPa 0 mm - 177 W/m² -
1788179154 26.11° C 99% 1017.6 hPa 0 mm - 158 W/m² -
1788178851 26.11° C 99% 1017.6 hPa 0 mm - 152 W/m² -
1788178550 25.56° C 99% 1017.5 hPa 0 mm - 121 W/m² -
1788178247 25° C 99% 1017.4 hPa 0 mm - 97 W/m² -
1788177946 25° C 99% 1017.5 hPa 0 mm - 53 W/m² -
1788177641 25° C 99% 1017.4 hPa 0 mm - 29 W/m² -
1788177337 25° C 99% 1017.2 hPa 0 mm - 55 W/m² -
1788177032 24.44° C 99% 1017.4 hPa 0 mm - 48 W/m² -
1788176731 24.44° C 99% 1017.2 hPa 0 mm - 38 W/m² -
1788176426 24.44° C 99% 1017.1 hPa 0 mm - 35 W/m² -
1788176125 24.44° C 99% 1016.9 hPa 0 mm - 25 W/m² -
1788175822 24.44° C 99% 1017 hPa 0 mm - 25 W/m² -
1788175534 24.44° C 99% 1016.7 hPa 0 mm - 22 W/m² -
1788175216 23.89° C 99% 1016.9 hPa 0 mm - 16 W/m² -

* Rain latest hour (hover to see other rain measurements)
** Current wind speed in m/s (hover to see current wind gust speed)